• en Belgique
  • Liste des pays
  • À 7 jours
  • Température de l'eau
  • Carte satellitaire
  • Carte météo
  • Widgets météo
  • user-avatar
    Se connecter

    Météo par heure à Algérie

    Ce jour, 24 Novembre, Vendredi

    Heure Température Précipitation Vent Pression Humidité
    00:00 +14°C° 0 mm 2 m/s 753 mmHg 40%
    01:00 +14°C° 0 mm 2 m/s 753 mmHg 38%
    02:00 +14°C° 0 mm 2 m/s 753 mmHg 36%
    03:00 +13°C° 0 mm 3 m/s 753 mmHg 34%
    04:00 +13°C° 0 mm 3 m/s 753 mmHg 33%
    05:00 +14°C° 0 mm 2 m/s 753 mmHg 31%
    06:00 +13°C° 0 mm 3 m/s 753 mmHg 30%
    07:00 +16°C° 0 mm 3 m/s 753 mmHg 28%
    08:00 +18°C° 0 mm 2 m/s 753 mmHg 26%
    09:00 +20°C° 0 mm 2 m/s 753 mmHg 24%
    10:00 +21°C° 0 mm 2 m/s 753 mmHg 21%
    11:00 +23°C° 0 mm 1 m/s 753 mmHg 19%
    12:00 +25°C° 0 mm 1 m/s 753 mmHg 16%
    13:00 +25°C° 0 mm 1 m/s 753 mmHg 17%
    14:00 +25°C° 0 mm 1 m/s 752 mmHg 18%
    15:00 +25°C° 0 mm 1 m/s 752 mmHg 19%
    16:00 +23°C° 0 mm 1 m/s 752 mmHg 22%
    17:00 +21°C° 0 mm 1 m/s 752 mmHg 24%
    18:00 +19°C° 0 mm 1 m/s 752 mmHg 27%
    19:00 +19°C° 0 mm 1 m/s 752 mmHg 27%
    20:00 +18°C° 0 mm 2 m/s 753 mmHg 26%
    21:00 +18°C° 0 mm 2 m/s 753 mmHg 26%
    22:00 +17°C° 0 mm 2 m/s 753 mmHg 25%
    23:00 +17°C° 0 mm 2 m/s 752 mmHg 25%

    Demain, 25 Novembre, Samedi

    Heure Température Précipitation Vent Pression Humidité
    00:00 +17°C° 0 mm 2 m/s 752 mmHg 25%
    01:00 +17°C° 0 mm 2 m/s 752 mmHg 25%
    02:00 +17°C° 0 mm 3 m/s 752 mmHg 25%
    03:00 +16°C° 0 mm 3 m/s 752 mmHg 25%
    04:00 +16°C° 0 mm 3 m/s 752 mmHg 25%
    05:00 +16°C° 0 mm 3 m/s 752 mmHg 25%
    06:00 +16°C° 0 mm 3 m/s 752 mmHg 24%
    07:00 +17°C° 0 mm 3 m/s 752 mmHg 24%
    08:00 +19°C° 0 mm 3 m/s 752 mmHg 24%
    09:00 +20°C° 0 mm 3 m/s 752 mmHg 24%
    10:00 +21°C° 0 mm 3 m/s 752 mmHg 21%
    11:00 +24°C° 0 mm 2 m/s 752 mmHg 19%
    12:00 +25°C° 0 mm 2 m/s 752 mmHg 16%
    13:00 +25°C° 0 mm 2 m/s 752 mmHg 17%
    14:00 +25°C° 0 mm 2 m/s 751 mmHg 18%
    15:00 +25°C° 0 mm 3 m/s 751 mmHg 20%
    16:00 +23°C° 0 mm 2 m/s 751 mmHg 25%
    17:00 +20°C° 0 mm 2 m/s 752 mmHg 30%
    18:00 +18°C° 0 mm 2 m/s 752 mmHg 35%
    19:00 +18°C° 0 mm 1 m/s 752 mmHg 35%
    20:00 +18°C° 0 mm 1 m/s 752 mmHg 36%
    21:00 +16°C° 0 mm 1 m/s 753 mmHg 37%
    22:00 +18°C° 0 mm 1 m/s 753 mmHg 35%
    23:00 +18°C° 0 mm 1 m/s 753 mmHg 33%

    Après-demain, 26 Novembre, Dimanche

    Heure Température Précipitation Vent Pression Humidité
    00:00 +18°C° 0 mm 1 m/s 753 mmHg 32%
    01:00 +18°C° 0 mm 1 m/s 753 mmHg 31%
    02:00 +16°C° 0 mm 1 m/s 753 mmHg 30%
    03:00 +16°C° 0 mm 1 m/s 753 mmHg 29%
    04:00 +16°C° 0 mm 2 m/s 753 mmHg 32%
    05:00 +16°C° 0 mm 2 m/s 753 mmHg 34%
    06:00 +16°C° 0 mm 2 m/s 753 mmHg 36%
    07:00 +17°C° 0,1 mm 2 m/s 754 mmHg 42%
    08:00 +18°C° 0,1 mm 2 m/s 755 mmHg 47%
    09:00 +19°C° 0,1 mm 2 m/s 755 mmHg 53%
    10:00 +19°C° 0,2 mm 3 m/s 755 mmHg 55%
    11:00 +20°C° 0,2 mm 4 m/s 755 mmHg 56%
    12:00 +20°C° 0,2 mm 4 m/s 755 mmHg 58%
    13:00 +20°C° 0,1 mm 5 m/s 755 mmHg 63%
    14:00 +19°C° 0,1 mm 5 m/s 755 mmHg 68%
    15:00 +19°C° 0,1 mm 5 m/s 755 mmHg 72%
    16:00 +17°C° 0,1 mm 5 m/s 756 mmHg 78%
    17:00 +16°C° 0,1 mm 5 m/s 756 mmHg 83%
    18:00 +15°C° 0,1 mm 5 m/s 757 mmHg 88%
    19:00 +14°C° 0,1 mm 5 m/s 757 mmHg 88%
    20:00 +14°C° 0,1 mm 5 m/s 757 mmHg 87%
    21:00 +14°C° 0,1 mm 5 m/s 758 mmHg 87%
    22:00 +13°C° 0 mm 4 m/s 758 mmHg 88%
    23:00 +13°C° 0 mm 4 m/s 758 mmHg 89%

    27 Novembre, Lundi

    Heure Température Précipitation Vent Pression Humidité
    00:00 +12°C° 0 mm 4 m/s 758 mmHg 89%
    01:00 +12°C° 0 mm 4 m/s 758 mmHg 88%
    02:00 +12°C° 0 mm 4 m/s 757 mmHg 86%
    03:00 +12°C° 0 mm 4 m/s 757 mmHg 85%
    04:00 +11°C° 0 mm 3 m/s 757 mmHg 85%
    05:00 +11°C° 0 mm 3 m/s 758 mmHg 85%
    06:00 +11°C° 0 mm 3 m/s 758 mmHg 85%
    07:00 +11°C° 0 mm 3 m/s 758 mmHg 79%
    08:00 +12°C° 0 mm 3 m/s 758 mmHg 73%
    09:00 +13°C° 0 mm 3 m/s 758 mmHg 68%
    10:00 +14°C° 0 mm 3 m/s 758 mmHg 61%
    11:00 +16°C° 0 mm 3 m/s 757 mmHg 54%
    12:00 +17°C° 0 mm 3 m/s 757 mmHg 47%
    13:00 +17°C° 0 mm 3 m/s 756 mmHg 46%
    14:00 +17°C° 0 mm 3 m/s 756 mmHg 45%
    15:00 +17°C° 0 mm 4 m/s 755 mmHg 45%
    16:00 +15°C° 0 mm 4 m/s 755 mmHg 51%
    17:00 +14°C° 0 mm 4 m/s 755 mmHg 58%
    18:00 +12°C° 0 mm 4 m/s 755 mmHg 64%
    19:00 +12°C° 0 mm 4 m/s 755 mmHg 65%
    20:00 +12°C° 0 mm 4 m/s 755 mmHg 65%
    21:00 +12°C° 0 mm 3 m/s 755 mmHg 66%
    22:00 +12°C° 0 mm 3 m/s 755 mmHg 65%
    23:00 +12°C° 0 mm 3 m/s 755 mmHg 63%

    28 Novembre, Mardi

    Heure Température Précipitation Vent Pression Humidité
    00:00 +12°C° 0 mm 3 m/s 754 mmHg 61%
    01:00 +12°C° 0 mm 3 m/s 754 mmHg 61%
    02:00 +12°C° 0 mm 3 m/s 754 mmHg 61%
    03:00 +11°C° 0 mm 3 m/s 753 mmHg 61%
    04:00 +12°C° 0 mm 2 m/s 753 mmHg 62%
    05:00 +12°C° 0 mm 2 m/s 753 mmHg 62%
    06:00 +13°C° 0 mm 2 m/s 753 mmHg 62%
    07:00 +14°C° 0 mm 2 m/s 753 mmHg 59%
    08:00 +15°C° 0 mm 2 m/s 753 mmHg 56%
    09:00 +16°C° 0 mm 2 m/s 753 mmHg 52%
    10:00 +18°C° 0 mm 1 m/s 752 mmHg 50%
    11:00 +20°C° 0 mm 1 m/s 752 mmHg 48%
    12:00 +21°C° 0 mm 1 m/s 751 mmHg 46%
    13:00 +21°C° 0 mm 1 m/s 750 mmHg 47%
    14:00 +21°C° 0 mm 1 m/s 750 mmHg 48%
    15:00 +21°C° 0 mm 1 m/s 749 mmHg 50%
    16:00 +19°C° 0 mm 1 m/s 749 mmHg 54%
    17:00 +18°C° 0 mm 1 m/s 749 mmHg 59%
    18:00 +16°C° 0 mm 1 m/s 749 mmHg 64%
    19:00 +16°C° 0 mm 1 m/s 749 mmHg 64%
    20:00 +16°C° 0 mm 1 m/s 749 mmHg 63%
    21:00 +15°C° 0 mm 2 m/s 748 mmHg 63%
    22:00 +16°C° 0 mm 2 m/s 748 mmHg 62%
    23:00 +16°C° 0 mm 2 m/s 747 mmHg 62%

    29 Novembre, Mercredi

    Heure Température Précipitation Vent Pression Humidité
    00:00 +16°C° 0 mm 3 m/s 747 mmHg 61%
    01:00 +14°C° 0 mm 3 m/s 746 mmHg 62%
    02:00 +14°C° 0 mm 3 m/s 746 mmHg 63%
    03:00 +14°C° 0 mm 4 m/s 745 mmHg 63%
    04:00 +14°C° 0 mm 4 m/s 745 mmHg 63%
    05:00 +14°C° 0 mm 4 m/s 745 mmHg 63%
    06:00 +14°C° 0 mm 4 m/s 744 mmHg 62%
    07:00 +15°C° 0 mm 4 m/s 744 mmHg 59%
    08:00 +17°C° 0 mm 4 m/s 744 mmHg 56%
    09:00 +19°C° 0 mm 4 m/s 744 mmHg 52%
    10:00 +21°C° 0 mm 5 m/s 743 mmHg 46%
    11:00 +23°C° 0 mm 6 m/s 742 mmHg 39%
    12:00 +26°C° 0 mm 7 m/s 742 mmHg 32%
    13:00 +24°C° 0,3 mm 8 m/s 742 mmHg 39%
    14:00 +22°C° 0,3 mm 10 m/s 741 mmHg 45%
    15:00 +21°C° 0,3 mm 11 m/s 741 mmHg 51%
    16:00 +19°C° 0,7 mm 10 m/s 742 mmHg 57%
    17:00 +18°C° 0,7 mm 8 m/s 742 mmHg 63%
    18:00 +17°C° 0,7 mm 6 m/s 742 mmHg 69%
    19:00 +17°C° 0,4 mm 6 m/s 743 mmHg 68%
    20:00 +17°C° 0,4 mm 5 m/s 743 mmHg 68%
    21:00 +18°C° 0,4 mm 4 m/s 743 mmHg 67%
    22:00 +18°C° 0,5 mm 4 m/s 743 mmHg 71%
    23:00 +17°C° 0,5 mm 4 m/s 743 mmHg 76%
    Voir plus